Time,TemperatureF,DewpointF,PressureIn,WindDirection,WindDirectionDegrees,WindSpeedMPH,WindSpeedGustMPH,Humidity,HourlyPrecipIn,Conditions,Clouds,dailyrainin,SoftwareType,DateUTC
2013-09-04 00:01:00,57.2,55.5,29.80,WNW,300,7.0,7.0,94,0.00,,,0.15,Wunderground v.1.15,2013-09-04 04:01:00,
2013-09-04 00:03:00,57.1,55.4,29.79,NW,313,7.0,13.0,94,0.00,,,0.15,Wunderground v.1.15,2013-09-04 04:03:00,
2013-09-04 00:05:00,57.1,55.4,29.80,NW,308,7.0,13.0,94,0.00,,,0.15,Wunderground v.1.15,2013-09-04 04:05:00,
2013-09-04 00:07:00,57.0,55.3,29.80,NNW,331,7.0,13.0,94,0.00,,,0.15,Wunderground v.1.15,2013-09-04 04:07:00,
2013-09-04 00:13:00,56.9,55.2,29.80,NNW,329,7.0,7.0,94,0.00,,,0.00,Wunderground v.1.15,2013-09-04 04:13:00,
2013-09-04 00:17:00,56.9,55.2,29.80,NW,321,6.0,7.0,94,0.00,,,0.00,Wunderground v.1.15,2013-09-04 04:17:00,
2013-09-04 00:23:00,56.8,55.1,29.80,NW,319,7.0,8.0,94,0.00,,,0.00,Wunderground v.1.15,2013-09-04 04:23:00,
2013-09-04 00:25:00,56.7,55.3,29.80,NW,316,7.0,9.0,95,0.00,,,0.00,Wunderground v.1.15,2013-09-04 04:25:00,
2013-09-04 00:31:00,56.6,55.2,29.80,NNW,333,5.0,5.0,95,0.00,,,0.00,Wunderground v.1.15,2013-09-04 04:31:00,
2013-09-04 00:37:00,56.5,55.1,29.80,NW,321,4.0,7.0,95,0.00,,,0.00,Wunderground v.1.15,2013-09-04 04:37:00,
2013-09-04 00:43:00,56.6,55.2,29.80,NW,313,3.0,4.0,95,0.00,,,0.00,Wunderground v.1.15,2013-09-04 04:43:00,
2013-09-04 00:49:00,56.6,55.5,29.80,NW,314,3.0,4.0,96,0.00,,,0.00,Wunderground v.1.15,2013-09-04 04:49:00,
2013-09-04 00:55:00,56.5,55.1,29.80,NW,311,4.0,4.0,95,0.00,,,0.00,Wunderground v.1.15,2013-09-04 04:55:00,
2013-09-04 01:01:00,56.3,55.2,29.81,NW,309,5.0,11.0,96,0.00,,,0.00,Wunderground v.1.15,2013-09-04 05:01:00,
2013-09-04 01:07:00,56.2,55.4,29.81,WNW,286,7.0,16.0,97,0.00,,,0.01,Wunderground v.1.15,2013-09-04 05:07:00,
2013-09-04 01:13:00,56.2,55.4,29.81,North,350,7.0,9.0,97,0.00,,,0.01,Wunderground v.1.15,2013-09-04 05:13:00,
2013-09-04 01:19:00,56.2,55.4,29.81,NW,319,6.0,9.0,97,0.00,,,0.01,Wunderground v.1.15,2013-09-04 05:19:00,
2013-09-04 01:25:00,56.2,55.4,29.81,NW,310,5.0,6.0,97,0.00,,,0.01,Wunderground v.1.15,2013-09-04 05:25:00,
2013-09-04 01:31:00,56.2,55.4,29.81,NNW,336,5.0,5.0,97,0.00,,,0.01,Wunderground v.1.15,2013-09-04 05:31:00,
2013-09-04 01:37:00,56.2,55.1,29.81,NW,325,5.0,10.0,96,0.00,,,0.01,Wunderground v.1.15,2013-09-04 05:37:00,
2013-09-04 01:43:00,56.2,54.8,29.81,NW,310,5.0,5.0,95,0.00,,,0.01,Wunderground v.1.15,2013-09-04 05:43:00,
2013-09-04 01:49:00,56.2,54.8,29.81,NW,309,5.0,6.0,95,0.00,,,0.01,Wunderground v.1.15,2013-09-04 05:49:00,
2013-09-04 01:55:00,56.2,54.8,29.81,North,355,5.0,7.0,95,0.00,,,0.01,Wunderground v.1.15,2013-09-04 05:55:00,
2013-09-04 02:01:00,56.3,54.6,29.81,NNW,342,3.0,3.0,94,0.00,,,0.01,Wunderground v.1.15,2013-09-04 06:01:00,
2013-09-04 02:07:00,56.2,54.5,29.81,NNW,333,3.0,17.0,94,0.00,,,0.01,Wunderground v.1.15,2013-09-04 06:07:00,
2013-09-04 02:13:00,56.2,54.5,29.81,NNW,345,3.0,17.0,94,0.00,,,0.01,Wunderground v.1.15,2013-09-04 06:13:00,
2013-09-04 02:19:00,56.2,54.5,29.81,NW,325,3.0,17.0,94,0.00,,,0.01,Wunderground v.1.15,2013-09-04 06:19:00,
2013-09-04 02:25:00,56.1,54.4,29.81,NW,317,3.0,6.0,94,0.00,,,0.01,Wunderground v.1.15,2013-09-04 06:25:00,
2013-09-04 02:31:00,56.1,54.4,29.81,NNW,346,5.0,5.0,94,0.00,,,0.01,Wunderground v.1.15,2013-09-04 06:31:00,
2013-09-04 02:37:00,56.1,54.4,29.81,NNW,346,4.0,5.0,94,0.00,,,0.01,Wunderground v.1.15,2013-09-04 06:37:00,
2013-09-04 02:43:00,56.1,54.4,29.81,NW,319,3.0,7.0,94,0.00,,,0.01,Wunderground v.1.15,2013-09-04 06:43:00,
2013-09-04 02:49:00,56.0,54.3,29.80,NNW,327,5.0,7.0,94,0.00,,,0.01,Wunderground v.1.15,2013-09-04 06:49:00,
2013-09-04 02:55:00,56.0,54.6,29.80,NW,317,5.0,11.0,95,0.00,,,0.01,Wunderground v.1.15,2013-09-04 06:55:00,
2013-09-04 03:01:00,56.0,54.3,29.80,NW,314,4.0,4.0,94,0.00,,,0.01,Wunderground v.1.15,2013-09-04 07:01:00,
2013-09-04 03:07:00,56.0,54.0,29.81,NNW,337,6.0,14.0,93,0.00,,,0.01,Wunderground v.1.15,2013-09-04 07:07:00,
2013-09-04 03:13:00,56.2,53.9,29.81,NNW,348,7.0,14.0,92,0.00,,,0.01,Wunderground v.1.15,2013-09-04 07:13:00,
2013-09-04 03:19:00,56.2,53.9,29.81,NW,317,7.0,14.0,92,0.00,,,0.01,Wunderground v.1.15,2013-09-04 07:19:00,
2013-09-04 03:25:00,56.2,53.9,29.81,North,360,8.0,9.0,92,0.00,,,0.01,Wunderground v.1.15,2013-09-04 07:25:00,
2013-09-04 03:31:00,56.1,54.1,29.81,NW,310,7.0,7.0,93,0.00,,,0.01,Wunderground v.1.15,2013-09-04 07:31:00,
2013-09-04 03:37:00,56.0,54.0,29.81,NNW,331,6.0,14.0,93,0.00,,,0.01,Wunderground v.1.15,2013-09-04 07:37:00,
2013-09-04 03:43:00,56.0,54.0,29.81,NNW,338,8.0,8.0,93,0.00,,,0.01,Wunderground v.1.15,2013-09-04 07:43:00,
2013-09-04 03:49:00,55.9,53.9,29.81,NW,326,8.0,8.0,93,0.00,,,0.01,Wunderground v.1.15,2013-09-04 07:49:00,
2013-09-04 03:55:00,55.8,54.1,29.81,North,355,8.0,12.0,94,0.00,,,0.01,Wunderground v.1.15,2013-09-04 07:55:00,
2013-09-04 04:01:00,55.7,54.0,29.81,NNW,336,8.0,9.0,94,0.00,,,0.01,Wunderground v.1.15,2013-09-04 08:01:00,
2013-09-04 04:07:00,55.7,54.0,29.81,NNW,331,8.0,13.0,94,0.00,,,0.01,Wunderground v.1.15,2013-09-04 08:07:00,
2013-09-04 04:13:00,55.7,54.0,29.81,NNW,336,8.0,8.0,94,0.00,,,0.01,Wunderground v.1.15,2013-09-04 08:13:00,
2013-09-04 04:19:00,55.5,53.8,29.81,North,355,9.0,12.0,94,0.00,,,0.01,Wunderground v.1.15,2013-09-04 08:19:00,
2013-09-04 04:25:00,55.3,53.9,29.81,NNW,346,8.0,9.0,95,0.00,,,0.01,Wunderground v.1.15,2013-09-04 08:25:00,
2013-09-04 04:31:00,55.2,53.8,29.81,NNW,343,7.0,11.0,95,0.00,,,0.01,Wunderground v.1.15,2013-09-04 08:31:00,
2013-09-04 04:37:00,55.2,54.1,29.82,NNW,333,8.0,12.0,96,0.00,,,0.01,Wunderground v.1.15,2013-09-04 08:37:00,
2013-09-04 04:43:00,55.2,53.8,29.82,NW,317,7.0,11.0,95,0.00,,,0.01,Wunderground v.1.15,2013-09-04 08:43:00,
2013-09-04 04:49:00,55.1,53.7,29.82,North,10,5.0,11.0,95,0.00,,,0.01,Wunderground v.1.15,2013-09-04 08:49:00,
2013-09-04 04:55:00,55.2,53.8,29.82,NW,320,5.0,12.0,95,0.00,,,0.01,Wunderground v.1.15,2013-09-04 08:55:00,
2013-09-04 05:01:00,55.4,54.0,29.82,NNW,342,5.0,5.0,95,0.00,,,0.01,Wunderground v.1.15,2013-09-04 09:01:00,
2013-09-04 05:07:00,55.4,54.0,29.83,North,355,4.0,18.0,95,0.00,,,0.01,Wunderground v.1.15,2013-09-04 09:07:00,
2013-09-04 05:13:00,55.5,53.8,29.83,NNW,331,4.0,5.0,94,0.00,,,0.01,Wunderground v.1.15,2013-09-04 09:13:00,
2013-09-04 05:19:00,55.4,53.7,29.83,NW,312,5.0,9.0,94,0.00,,,0.01,Wunderground v.1.15,2013-09-04 09:19:00,
2013-09-04 05:25:00,55.2,53.8,29.83,North,360,4.0,5.0,95,0.00,,,0.01,Wunderground v.1.15,2013-09-04 09:25:00,
2013-09-04 05:31:00,55.2,53.8,29.83,NNW,329,4.0,4.0,95,0.00,,,0.01,Wunderground v.1.15,2013-09-04 09:31:00,
2013-09-04 05:37:00,55.1,53.4,29.83,NW,307,5.0,6.0,94,0.00,,,0.01,Wunderground v.1.15,2013-09-04 09:37:00,
2013-09-04 05:43:00,55.0,53.6,29.83,NNW,330,3.0,4.0,95,0.00,,,0.01,Wunderground v.1.15,2013-09-04 09:43:00,
2013-09-04 05:49:00,55.1,53.7,29.83,NW,322,3.0,7.0,95,0.00,,,0.01,Wunderground v.1.15,2013-09-04 09:49:00,
2013-09-04 05:55:00,55.0,53.3,29.83,NW,312,4.0,10.0,94,0.00,,,0.01,Wunderground v.1.15,2013-09-04 09:55:00,
2013-09-04 06:01:00,55.0,53.3,29.83,NW,311,3.0,5.0,94,0.00,,,0.01,Wunderground v.1.15,2013-09-04 10:01:00,
2013-09-04 06:07:00,54.8,53.1,29.83,NNW,338,1.0,17.0,94,0.00,,,0.01,Wunderground v.1.15,2013-09-04 10:07:00,
2013-09-04 06:13:00,54.4,53.0,29.83,NNW,339,1.0,1.0,95,0.00,,,0.01,Wunderground v.1.15,2013-09-04 10:13:00,
2013-09-04 06:19:00,54.2,52.8,29.83,North,5,1.0,2.0,95,0.00,,,0.01,Wunderground v.1.15,2013-09-04 10:19:00,
2013-09-04 06:25:00,54.2,52.8,29.83,NW,319,1.0,3.0,95,0.00,,,0.01,Wunderground v.1.15,2013-09-04 10:25:00,
2013-09-04 06:31:00,54.1,53.0,29.83,NW,323,1.0,1.0,96,0.00,,,0.01,Wunderground v.1.15,2013-09-04 10:31:00,
2013-09-04 06:37:00,54.0,52.6,29.83,NNW,327,0.0,1.0,95,0.00,,,0.01,Wunderground v.1.15,2013-09-04 10:37:00,
2013-09-04 06:43:00,54.1,52.7,29.83,NE,34,0.0,0.0,95,0.00,,,0.01,Wunderground v.1.15,2013-09-04 10:43:00,
2013-09-04 06:49:00,54.2,52.8,29.83,NW,313,1.0,9.0,95,0.00,,,0.01,Wunderground v.1.15,2013-09-04 10:49:00,
2013-09-04 06:55:00,54.5,52.8,29.84,NNW,327,2.0,2.0,94,0.00,,,0.01,Wunderground v.1.15,2013-09-04 10:55:00,
2013-09-04 07:01:00,54.3,52.6,29.84,NW,307,1.0,1.0,94,0.00,,,0.01,Wunderground v.1.15,2013-09-04 11:01:00,
2013-09-04 07:07:00,54.1,52.4,29.84,WNW,298,0.0,15.0,94,0.00,,,0.01,Wunderground v.1.15,2013-09-04 11:07:00,
2013-09-04 07:13:00,54.1,52.4,29.84,NNW,331,1.0,15.0,94,0.00,,,0.01,Wunderground v.1.15,2013-09-04 11:13:00,
2013-09-04 07:19:00,54.1,52.4,29.84,NW,315,2.0,15.0,94,0.00,,,0.01,Wunderground v.1.15,2013-09-04 11:19:00,
2013-09-04 07:25:00,53.9,52.2,29.84,NW,315,1.0,2.0,94,0.00,,,0.01,Wunderground v.1.15,2013-09-04 11:25:00,
2013-09-04 07:31:00,54.0,52.6,29.84,NW,319,1.0,2.0,95,0.00,,,0.01,Wunderground v.1.15,2013-09-04 11:31:00,
2013-09-04 07:37:00,54.3,52.6,29.84,NNE,15,1.0,5.0,94,0.00,,,0.01,Wunderground v.1.15,2013-09-04 11:37:00,
2013-09-04 07:43:00,54.6,52.9,29.84,NNW,330,1.0,1.0,94,0.00,,,0.01,Wunderground v.1.15,2013-09-04 11:43:00,
2013-09-04 07:49:00,54.9,52.9,29.84,NW,321,2.0,3.0,93,0.00,,,0.01,Wunderground v.1.15,2013-09-04 11:49:00,
2013-09-04 07:55:00,55.2,53.2,29.84,NNW,338,3.0,4.0,93,0.00,,,0.01,Wunderground v.1.15,2013-09-04 11:55:00,
2013-09-04 08:01:00,55.4,53.4,29.84,NW,318,2.0,2.0,93,0.00,,,0.01,Wunderground v.1.15,2013-09-04 12:01:00,
2013-09-04 08:07:00,55.6,53.3,29.84,NNW,329,2.0,9.0,92,0.00,,,0.01,Wunderground v.1.15,2013-09-04 12:07:00,
2013-09-04 08:13:00,55.8,53.5,29.84,NNW,340,2.0,9.0,92,0.00,,,0.01,Wunderground v.1.15,2013-09-04 12:13:00,
2013-09-04 08:19:00,56.0,53.4,29.84,NNW,346,3.0,9.0,91,0.00,,,0.01,Wunderground v.1.15,2013-09-04 12:19:00,
2013-09-04 08:25:00,56.2,53.3,29.84,North,350,4.0,4.0,90,0.00,,,0.01,Wunderground v.1.15,2013-09-04 12:25:00,
2013-09-04 08:31:00,56.4,53.5,29.84,WNW,299,4.0,4.0,90,0.00,,,0.01,Wunderground v.1.15,2013-09-04 12:31:00,
2013-09-04 08:37:00,56.7,53.5,29.84,NW,324,5.0,6.0,89,0.00,,,0.01,Wunderground v.1.15,2013-09-04 12:37:00,
2013-09-04 08:43:00,57.0,53.8,29.84,NW,312,4.0,10.0,89,0.00,,,0.01,Wunderground v.1.15,2013-09-04 12:43:00,
2013-09-04 08:49:00,57.3,53.8,29.84,NW,307,4.0,10.0,88,0.00,,,0.01,Wunderground v.1.15,2013-09-04 12:49:00,
2013-09-04 08:55:00,57.3,53.5,29.84,North,360,5.0,7.0,87,0.00,,,0.01,Wunderground v.1.15,2013-09-04 12:55:00,
2013-09-04 09:01:00,57.6,53.4,29.84,NNW,333,5.0,5.0,86,0.00,,,0.01,Wunderground v.1.15,2013-09-04 13:01:00,
2013-09-04 09:07:00,57.8,53.3,29.84,NW,321,5.0,11.0,85,0.00,,,0.01,Wunderground v.1.15,2013-09-04 13:07:00,
2013-09-04 09:13:00,58.3,54.1,29.84,NNW,329,3.0,11.0,86,0.00,,,0.01,Wunderground v.1.15,2013-09-04 13:13:00,
2013-09-04 09:19:00,59.0,53.8,29.85,NNW,342,2.0,11.0,83,0.00,,,0.01,Wunderground v.1.15,2013-09-04 13:19:00,
2013-09-04 09:25:00,59.0,53.2,29.84,WNW,300,2.0,5.0,81,0.00,,,0.01,Wunderground v.1.15,2013-09-04 13:25:00,
2013-09-04 09:31:00,59.4,53.2,29.85,North,360,3.0,3.0,80,0.00,,,0.01,Wunderground v.1.15,2013-09-04 13:31:00,
2013-09-04 09:37:00,59.6,52.4,29.85,NNW,329,4.0,9.0,77,0.00,,,0.01,Wunderground v.1.15,2013-09-04 13:37:00,
2013-09-04 09:43:00,59.6,52.7,29.85,NW,307,6.0,6.0,78,0.00,,,0.01,Wunderground v.1.15,2013-09-04 13:43:00,
2013-09-04 09:49:00,59.7,53.2,29.85,NW,309,5.0,9.0,79,0.00,,,0.01,Wunderground v.1.15,2013-09-04 13:49:00,
2013-09-04 09:55:00,60.1,52.9,29.85,North,350,5.0,5.0,77,0.00,,,0.01,Wunderground v.1.15,2013-09-04 13:55:00,
2013-09-04 10:01:00,60.3,52.3,29.85,NW,322,5.0,5.0,75,0.00,,,0.01,Wunderground v.1.15,2013-09-04 14:01:00,
2013-09-04 10:07:00,60.2,51.9,29.85,NNW,334,6.0,14.0,74,0.00,,,0.01,Wunderground v.1.15,2013-09-04 14:07:00,
2013-09-04 10:13:00,60.2,53.3,29.86,NW,317,7.0,14.0,78,0.00,,,0.01,Wunderground v.1.15,2013-09-04 14:13:00,
2013-09-04 10:19:00,60.5,52.5,29.86,WNW,299,8.0,16.0,75,0.00,,,0.01,Wunderground v.1.15,2013-09-04 14:19:00,
2013-09-04 10:25:00,60.6,53.0,29.86,WNW,299,8.0,11.0,76,0.00,,,0.01,Wunderground v.1.15,2013-09-04 14:25:00,
2013-09-04 10:31:00,61.1,53.1,29.86,WSW,258,6.0,13.0,75,0.00,,,0.01,Wunderground v.1.15,2013-09-04 14:31:00,
2013-09-04 10:37:00,61.0,54.1,29.86,West,272,7.0,13.0,78,0.00,,,0.01,Wunderground v.1.15,2013-09-04 14:37:00,
2013-09-04 10:43:00,61.0,53.7,29.86,WNW,293,6.0,10.0,77,0.00,,,0.01,Wunderground v.1.15,2013-09-04 14:43:00,
2013-09-04 10:49:00,61.0,54.4,29.87,NW,315,7.0,11.0,79,0.00,,,0.01,Wunderground v.1.15,2013-09-04 14:49:00,
2013-09-04 10:55:00,60.5,54.0,29.86,NW,311,7.0,9.0,79,0.00,,,0.01,Wunderground v.1.15,2013-09-04 14:55:00,
2013-09-04 11:01:00,60.4,54.5,29.87,NW,317,8.0,13.0,81,0.00,,,0.01,Wunderground v.1.15,2013-09-04 15:01:00,
2013-09-04 11:07:00,60.8,54.2,29.87,NW,311,8.0,17.0,79,0.00,,,0.01,Wunderground v.1.15,2013-09-04 15:07:00,
2013-09-04 11:13:00,61.1,54.9,29.87,NW,323,8.0,17.0,80,0.00,,,0.01,Wunderground v.1.15,2013-09-04 15:13:00,
2013-09-04 11:19:00,61.3,54.0,29.87,NW,314,9.0,17.0,77,0.00,,,0.01,Wunderground v.1.15,2013-09-04 15:19:00,
2013-09-04 11:25:00,61.4,53.8,29.87,NW,320,10.0,12.0,76,0.00,,,0.01,Wunderground v.1.15,2013-09-04 15:25:00,
2013-09-04 11:31:00,61.7,54.4,29.87,NW,319,9.0,10.0,77,0.00,,,0.01,Wunderground v.1.15,2013-09-04 15:31:00,
2013-09-04 11:37:00,60.6,54.0,29.87,NNW,341,10.0,11.0,79,0.00,,,0.01,Wunderground v.1.15,2013-09-04 15:37:00,
2013-09-04 11:43:00,60.7,54.8,29.87,NNW,331,9.0,11.0,81,0.00,,,0.01,Wunderground v.1.15,2013-09-04 15:43:00,
2013-09-04 11:49:00,60.9,54.0,29.87,NW,311,8.0,16.0,78,0.00,,,0.01,Wunderground v.1.15,2013-09-04 15:49:00,
2013-09-04 11:55:00,60.7,53.8,29.87,NW,323,10.0,13.0,78,0.00,,,0.01,Wunderground v.1.15,2013-09-04 15:55:00,
2013-09-04 12:01:00,60.5,54.0,29.87,NW,309,10.0,12.0,79,0.00,,,0.01,Wunderground v.1.15,2013-09-04 16:01:00,
2013-09-04 12:07:00,60.3,53.4,29.87,NNW,348,9.0,20.0,78,0.00,,,0.01,Wunderground v.1.15,2013-09-04 16:07:00,
2013-09-04 12:13:00,60.0,53.5,29.87,North,5,7.0,7.0,79,0.00,,,0.01,Wunderground v.1.15,2013-09-04 16:13:00,
2013-09-04 12:19:00,60.0,53.8,29.88,NNW,329,7.0,16.0,80,0.00,,,0.01,Wunderground v.1.15,2013-09-04 16:19:00,
2013-09-04 12:25:00,60.1,54.2,29.87,NW,312,6.0,7.0,81,0.00,,,0.01,Wunderground v.1.15,2013-09-04 16:25:00,
2013-09-04 12:31:00,60.1,54.2,29.87,NNW,342,5.0,6.0,81,0.00,,,0.01,Wunderground v.1.15,2013-09-04 16:31:00,
2013-09-04 12:37:00,60.2,54.3,29.87,NW,321,7.0,14.0,81,0.00,,,0.01,Wunderground v.1.15,2013-09-04 16:37:00,
2013-09-04 12:43:00,60.7,54.5,29.88,NNW,343,8.0,8.0,80,0.00,,,0.01,Wunderground v.1.15,2013-09-04 16:43:00,
2013-09-04 12:49:00,61.0,54.4,29.88,NW,304,7.0,10.0,79,0.00,,,0.01,Wunderground v.1.15,2013-09-04 16:49:00,
2013-09-04 12:55:00,61.2,55.3,29.88,NNW,330,7.0,18.0,81,0.00,,,0.01,Wunderground v.1.15,2013-09-04 16:55:00,
2013-09-04 13:01:00,60.8,54.2,29.88,NW,326,7.0,7.0,79,0.00,,,0.01,Wunderground v.1.15,2013-09-04 17:01:00,
2013-09-04 13:07:00,60.4,54.5,29.88,NNW,331,6.0,24.0,81,0.00,,,0.01,Wunderground v.1.15,2013-09-04 17:07:00,
2013-09-04 13:13:00,60.2,54.7,29.88,NNW,334,6.0,10.0,82,0.00,,,0.01,Wunderground v.1.15,2013-09-04 17:13:00,
2013-09-04 13:19:00,60.5,55.3,29.89,NNW,329,5.0,10.0,83,0.00,,,0.01,Wunderground v.1.15,2013-09-04 17:19:00,
2013-09-04 13:25:00,61.6,55.4,29.88,WNW,292,7.0,13.0,80,0.00,,,0.01,Wunderground v.1.15,2013-09-04 17:25:00,
2013-09-04 13:31:00,61.6,55.4,29.88,NNE,14,10.0,10.0,80,0.00,,,0.01,Wunderground v.1.15,2013-09-04 17:31:00,
2013-09-04 13:37:00,61.3,55.8,29.89,NNW,329,7.0,10.0,82,0.00,,,0.01,Wunderground v.1.15,2013-09-04 17:37:00,
2013-09-04 13:43:00,61.3,55.4,29.88,NW,307,5.0,7.0,81,0.00,,,0.01,Wunderground v.1.15,2013-09-04 17:43:00,
2013-09-04 13:49:00,61.1,55.2,29.88,NW,321,6.0,9.0,81,0.00,,,0.01,Wunderground v.1.15,2013-09-04 17:49:00,
2013-09-04 13:55:00,61.2,55.3,29.88,North,355,6.0,9.0,81,0.00,,,0.01,Wunderground v.1.15,2013-09-04 17:55:00,
2013-09-04 14:01:00,61.6,55.7,29.87,NW,315,7.0,14.0,81,0.00,,,0.01,Wunderground v.1.15,2013-09-04 18:01:00,
2013-09-04 14:07:00,62.3,56.7,29.87,NW,309,7.0,18.0,82,0.00,,,0.01,Wunderground v.1.15,2013-09-04 18:07:00,
2013-09-04 14:13:00,63.1,55.8,29.87,North,10,7.0,7.0,77,0.00,,,0.01,Wunderground v.1.15,2013-09-04 18:13:00,
2013-09-04 14:19:00,62.6,56.7,29.86,NNW,346,7.0,7.0,81,0.00,,,0.01,Wunderground v.1.15,2013-09-04 18:19:00,
2013-09-04 14:25:00,62.5,55.9,29.87,NW,315,5.0,7.0,79,0.00,,,0.01,Wunderground v.1.15,2013-09-04 18:25:00,
2013-09-04 14:31:00,61.7,55.8,29.86,NNW,334,5.0,5.0,81,0.00,,,0.01,Wunderground v.1.15,2013-09-04 18:31:00,
2013-09-04 14:37:00,61.6,56.0,29.86,NNW,327,6.0,6.0,82,0.00,,,0.01,Wunderground v.1.15,2013-09-04 18:37:00,
2013-09-04 14:43:00,61.9,56.3,29.86,NNW,332,7.0,17.0,82,0.00,,,0.01,Wunderground v.1.15,2013-09-04 18:43:00,
2013-09-04 14:49:00,62.1,56.2,29.86,NW,318,10.0,17.0,81,0.00,,,0.01,Wunderground v.1.15,2013-09-04 18:49:00,
2013-09-04 14:55:00,62.3,56.4,29.86,NNW,347,7.0,10.0,81,0.00,,,0.01,Wunderground v.1.15,2013-09-04 18:55:00,
2013-09-04 15:01:00,61.9,56.0,29.87,North,355,6.0,6.0,81,0.00,,,0.01,Wunderground v.1.15,2013-09-04 19:01:00,
2013-09-04 15:07:00,61.5,55.6,29.86,NW,309,8.0,19.0,81,0.00,,,0.01,Wunderground v.1.15,2013-09-04 19:07:00,
2013-09-04 15:13:00,61.3,55.8,29.86,NNW,336,7.0,8.0,82,0.00,,,0.01,Wunderground v.1.15,2013-09-04 19:13:00,
2013-09-04 15:19:00,61.1,55.9,29.86,North,351,5.0,8.0,83,0.00,,,0.01,Wunderground v.1.15,2013-09-04 19:19:00,
2013-09-04 15:25:00,61.0,55.5,29.86,NNW,337,5.0,5.0,82,0.00,,,0.01,Wunderground v.1.15,2013-09-04 19:25:00,
2013-09-04 15:31:00,61.0,55.8,29.85,NW,317,4.0,4.0,83,0.00,,,0.01,Wunderground v.1.15,2013-09-04 19:31:00,
2013-09-04 15:37:00,61.0,55.8,29.86,NW,326,2.0,4.0,83,0.00,,,0.01,Wunderground v.1.15,2013-09-04 19:37:00,
2013-09-04 15:43:00,60.9,55.7,29.86,WNW,302,2.0,11.0,83,0.00,,,0.01,Wunderground v.1.15,2013-09-04 19:43:00,
2013-09-04 15:49:00,60.9,55.7,29.86,NNW,329,3.0,11.0,83,0.00,,,0.01,Wunderground v.1.15,2013-09-04 19:49:00,
2013-09-04 15:55:00,61.0,55.5,29.86,NW,313,3.0,6.0,82,0.00,,,0.01,Wunderground v.1.15,2013-09-04 19:55:00,
2013-09-04 16:01:00,61.1,55.6,29.86,North,9,2.0,3.0,82,0.00,,,0.01,Wunderground v.1.15,2013-09-04 20:01:00,
2013-09-04 16:07:00,61.1,55.2,29.86,NNW,345,1.0,20.0,81,0.00,,,0.01,Wunderground v.1.15,2013-09-04 20:07:00,
2013-09-04 16:13:00,61.1,55.2,29.86,NNW,338,1.0,20.0,81,0.00,,,0.01,Wunderground v.1.15,2013-09-04 20:13:00,
2013-09-04 16:19:00,61.1,55.2,29.86,North,360,2.0,20.0,81,0.00,,,0.01,Wunderground v.1.15,2013-09-04 20:19:00,
2013-09-04 16:25:00,60.9,55.7,29.86,NNW,327,1.0,2.0,83,0.00,,,0.01,Wunderground v.1.15,2013-09-04 20:25:00,
2013-09-04 16:31:00,60.7,55.8,29.86,NNW,338,1.0,1.0,84,0.00,,,0.01,Wunderground v.1.15,2013-09-04 20:31:00,
2013-09-04 16:37:00,60.5,55.6,29.87,NNW,331,0.0,1.0,84,0.00,,,0.01,Wunderground v.1.15,2013-09-04 20:37:00,
2013-09-04 16:43:00,60.4,55.9,29.87,NW,315,0.0,0.0,85,0.00,,,0.01,Wunderground v.1.15,2013-09-04 20:43:00,
2013-09-04 16:49:00,60.3,56.1,29.87,North,355,3.0,10.0,86,0.00,,,0.01,Wunderground v.1.15,2013-09-04 20:49:00,
2013-09-04 16:55:00,60.0,56.1,29.87,North,11,5.0,5.0,87,0.00,,,0.01,Wunderground v.1.15,2013-09-04 20:55:00,
2013-09-04 17:01:00,59.4,56.2,29.87,North,355,3.0,3.0,89,0.00,,,0.01,Wunderground v.1.15,2013-09-04 21:01:00,
2013-09-04 17:07:00,59.0,55.8,29.87,ENE,68,3.0,12.0,89,0.00,,,0.01,Wunderground v.1.15,2013-09-04 21:07:00,
2013-09-04 17:13:00,58.5,55.6,29.88,NNE,17,4.0,12.0,90,0.00,,,0.01,Wunderground v.1.15,2013-09-04 21:13:00,
2013-09-04 17:19:00,58.1,55.2,29.88,NNE,15,5.0,13.0,90,0.00,,,0.01,Wunderground v.1.15,2013-09-04 21:19:00,
2013-09-04 17:25:00,57.9,55.3,29.88,NNE,20,5.0,6.0,91,0.00,,,0.01,Wunderground v.1.15,2013-09-04 21:25:00,
2013-09-04 17:31:00,58.0,55.4,29.88,North,10,2.0,7.0,91,0.00,,,0.01,Wunderground v.1.15,2013-09-04 21:31:00,
2013-09-04 17:37:00,57.8,55.2,29.88,NNE,26,2.0,7.0,91,0.00,,,0.01,Wunderground v.1.15,2013-09-04 21:37:00,
2013-09-04 17:43:00,57.5,55.2,29.88,East,96,2.0,3.0,92,0.00,,,0.01,Wunderground v.1.15,2013-09-04 21:43:00,
2013-09-04 17:49:00,57.1,55.1,29.88,NE,37,2.0,6.0,93,0.00,,,0.02,Wunderground v.1.15,2013-09-04 21:49:00,
2013-09-04 17:55:00,57.0,55.3,29.88,NW,313,3.0,5.0,94,0.00,,,0.02,Wunderground v.1.15,2013-09-04 21:55:00,
2013-09-04 18:01:00,56.8,55.1,29.88,WSW,248,2.0,2.0,94,0.00,,,0.02,Wunderground v.1.15,2013-09-04 22:01:00,
2013-09-04 18:07:00,56.7,55.3,29.89,WNW,298,3.0,12.0,95,0.00,,,0.02,Wunderground v.1.15,2013-09-04 22:07:00,
2013-09-04 18:13:00,56.7,55.3,29.88,NNW,334,3.0,12.0,95,0.00,,,0.02,Wunderground v.1.15,2013-09-04 22:13:00,
2013-09-04 18:19:00,56.7,55.3,29.88,NNE,32,5.0,12.0,95,0.00,,,0.02,Wunderground v.1.15,2013-09-04 22:19:00,
2013-09-04 18:25:00,56.6,55.5,29.88,NNW,336,5.0,7.0,96,0.00,,,0.02,Wunderground v.1.15,2013-09-04 22:25:00,
2013-09-04 18:31:00,56.6,55.5,29.88,NW,313,3.0,5.0,96,0.00,,,0.02,Wunderground v.1.15,2013-09-04 22:31:00,
2013-09-04 18:37:00,56.6,55.5,29.88,NNE,29,3.0,5.0,96,0.00,,,0.02,Wunderground v.1.15,2013-09-04 22:37:00,
2013-09-04 18:43:00,56.6,55.5,29.88,NNE,18,3.0,4.0,96,0.00,,,0.02,Wunderground v.1.15,2013-09-04 22:43:00,
2013-09-04 18:49:00,56.5,55.4,29.88,NW,323,4.0,6.0,96,0.00,,,0.02,Wunderground v.1.15,2013-09-04 22:49:00,
2013-09-04 18:55:00,56.4,55.3,29.88,NW,316,4.0,6.0,96,0.00,,,0.02,Wunderground v.1.15,2013-09-04 22:55:00,
2013-09-04 19:01:00,56.4,55.6,29.88,NW,307,4.0,4.0,97,0.00,,,0.02,Wunderground v.1.15,2013-09-04 23:01:00,
2013-09-04 19:07:00,56.5,55.7,29.88,NNW,332,4.0,13.0,97,0.00,,,0.02,Wunderground v.1.15,2013-09-04 23:07:00,
2013-09-04 19:13:00,56.5,55.4,29.88,NNW,341,4.0,13.0,96,0.00,,,0.02,Wunderground v.1.15,2013-09-04 23:13:00,
2013-09-04 19:19:00,56.4,55.6,29.88,NW,318,5.0,13.0,97,0.00,,,0.02,Wunderground v.1.15,2013-09-04 23:19:00,
2013-09-04 19:25:00,56.5,55.4,29.88,WNW,299,4.0,4.0,96,0.00,,,0.02,Wunderground v.1.15,2013-09-04 23:25:00,
2013-09-04 19:31:00,56.6,55.5,29.88,NW,311,3.0,7.0,96,0.00,,,0.02,Wunderground v.1.15,2013-09-04 23:31:00,
2013-09-04 19:37:00,56.6,55.5,29.88,NNW,329,3.0,7.0,96,0.00,,,0.02,Wunderground v.1.15,2013-09-04 23:37:00,
2013-09-04 19:43:00,56.7,55.3,29.88,NW,308,3.0,5.0,95,0.00,,,0.02,Wunderground v.1.15,2013-09-04 23:43:00,
2013-09-04 19:49:00,56.6,55.2,29.88,NNW,344,2.0,5.0,95,0.00,,,0.02,Wunderground v.1.15,2013-09-04 23:49:00,
2013-09-04 19:55:00,56.6,55.2,29.89,WNW,303,1.0,4.0,95,0.00,,,0.02,Wunderground v.1.15,2013-09-04 23:55:00,
2013-09-04 20:01:00,56.6,55.2,29.89,North,349,2.0,2.0,95,0.00,,,0.02,Wunderground v.1.15,2013-09-05 00:01:00,
2013-09-04 20:07:00,56.4,55.0,29.89,NNW,345,1.0,13.0,95,0.00,,,0.03,Wunderground v.1.15,2013-09-05 00:07:00,
2013-09-04 20:13:00,56.3,54.9,29.89,NNW,340,2.0,5.0,95,0.08,,,0.04,Wunderground v.1.15,2013-09-05 00:13:00,
2013-09-04 20:19:00,56.2,55.1,29.89,North,5,1.0,5.0,96,0.11,,,0.05,Wunderground v.1.15,2013-09-05 00:19:00,
2013-09-04 20:25:00,56.1,55.0,29.89,NNW,327,1.0,5.0,96,0.08,,,0.06,Wunderground v.1.15,2013-09-05 00:25:00,
2013-09-04 20:31:00,55.9,54.8,29.90,NNW,333,2.0,4.0,96,0.14,,,0.07,Wunderground v.1.15,2013-09-05 00:31:00,
2013-09-04 20:37:00,55.9,55.1,29.90,NW,324,3.0,4.0,97,0.31,,,0.10,Wunderground v.1.15,2013-09-05 00:37:00,
2013-09-04 20:43:00,55.8,55.0,29.90,NNW,340,1.0,5.0,97,0.21,,,0.12,Wunderground v.1.15,2013-09-05 00:43:00,
2013-09-04 20:49:00,55.7,54.9,29.90,NNW,330,4.0,8.0,97,0.15,,,0.13,Wunderground v.1.15,2013-09-05 00:49:00,
2013-09-04 20:55:00,55.6,54.8,29.90,North,360,4.0,6.0,97,0.40,,,0.16,Wunderground v.1.15,2013-09-05 00:55:00,
2013-09-04 21:01:00,55.4,54.6,29.90,North,5,5.0,8.0,97,0.30,,,0.19,Wunderground v.1.15,2013-09-05 01:01:00,
2013-09-04 21:07:00,55.4,54.3,29.90,North,9,6.0,11.0,96,0.19,,,0.21,Wunderground v.1.15,2013-09-05 01:07:00,
2013-09-04 21:13:00,55.4,54.6,29.90,NNW,347,5.0,11.0,97,0.14,,,0.22,Wunderground v.1.15,2013-09-05 01:13:00,
2013-09-04 21:19:00,55.3,54.5,29.90,North,360,5.0,11.0,97,0.12,,,0.23,Wunderground v.1.15,2013-09-05 01:19:00,
2013-09-04 21:25:00,55.4,54.6,29.90,NW,306,6.0,10.0,97,0.15,,,0.25,Wunderground v.1.15,2013-09-05 01:25:00,
2013-09-04 21:31:00,55.5,54.7,29.90,North,350,4.0,12.0,97,0.22,,,0.27,Wunderground v.1.15,2013-09-05 01:31:00,
2013-09-04 21:37:00,55.5,54.7,29.90,NW,309,4.0,12.0,97,0.15,,,0.29,Wunderground v.1.15,2013-09-05 01:37:00,
2013-09-04 21:43:00,55.3,54.5,29.90,NW,317,4.0,5.0,97,0.08,,,0.29,Wunderground v.1.15,2013-09-05 01:43:00,
2013-09-04 21:49:00,55.2,54.4,29.90,NW,321,3.0,5.0,97,0.08,,,0.30,Wunderground v.1.15,2013-09-05 01:49:00,
2013-09-04 21:55:00,55.0,54.2,29.91,NW,321,4.0,6.0,97,0.05,,,0.30,Wunderground v.1.15,2013-09-05 01:55:00,
2013-09-04 22:01:00,54.9,54.1,29.91,NNW,337,4.0,4.0,97,0.00,,,0.30,Wunderground v.1.15,2013-09-05 02:01:00,
2013-09-04 22:07:00,55.0,54.2,29.91,NNW,334,4.0,16.0,97,0.00,,,0.30,Wunderground v.1.15,2013-09-05 02:07:00,
2013-09-04 22:13:00,54.9,54.1,29.91,NW,316,6.0,6.0,97,0.00,,,0.30,Wunderground v.1.15,2013-09-05 02:13:00,
2013-09-04 22:19:00,54.8,54.0,29.91,NW,316,7.0,11.0,97,0.00,,,0.30,Wunderground v.1.15,2013-09-05 02:19:00,
2013-09-04 22:25:00,54.7,53.9,29.90,NW,311,5.0,7.0,97,0.00,,,0.30,Wunderground v.1.15,2013-09-05 02:25:00,
2013-09-04 22:31:00,54.6,53.8,29.90,NNE,14,2.0,2.0,97,0.00,,,0.30,Wunderground v.1.15,2013-09-05 02:31:00,
2013-09-04 22:37:00,54.6,53.8,29.90,NNE,21,1.0,2.0,97,0.00,,,0.30,Wunderground v.1.15,2013-09-05 02:37:00,
2013-09-04 22:43:00,54.6,53.8,29.90,NNE,15,0.0,0.0,97,0.00,,,0.30,Wunderground v.1.15,2013-09-05 02:43:00,
2013-09-04 22:49:00,54.6,53.8,29.90,NNE,24,0.0,3.0,97,0.00,,,0.30,Wunderground v.1.15,2013-09-05 02:49:00,
2013-09-04 22:55:00,54.7,53.9,29.89,ENE,69,1.0,3.0,97,0.00,,,0.30,Wunderground v.1.15,2013-09-05 02:55:00,
2013-09-04 23:01:00,54.8,54.0,29.89,NNW,333,0.0,0.0,97,0.00,,,0.30,Wunderground v.1.15,2013-09-05 03:01:00,
2013-09-04 23:07:00,54.9,53.8,29.89,NW,314,1.0,15.0,96,0.00,,,0.30,Wunderground v.1.15,2013-09-05 03:07:00,
2013-09-04 23:13:00,54.8,53.7,29.89,NW,315,0.0,15.0,96,0.00,,,0.30,Wunderground v.1.15,2013-09-05 03:13:00,
2013-09-04 23:19:00,54.8,53.7,29.89,North,355,0.0,15.0,96,0.00,,,0.30,Wunderground v.1.15,2013-09-05 03:19:00,
2013-09-04 23:25:00,54.8,53.7,29.89,NNE,26,1.0,9.0,96,0.00,,,0.30,Wunderground v.1.15,2013-09-05 03:25:00,
2013-09-04 23:31:00,54.9,53.5,29.89,NNW,348,1.0,1.0,95,0.00,,,0.30,Wunderground v.1.15,2013-09-05 03:31:00,
2013-09-04 23:37:00,54.9,53.5,29.89,North,349,0.0,4.0,95,0.00,,,0.30,Wunderground v.1.15,2013-09-05 03:37:00,
2013-09-04 23:43:00,54.9,53.5,29.89,NNE,26,1.0,4.0,95,0.00,,,0.30,Wunderground v.1.15,2013-09-05 03:43:00,
2013-09-04 23:49:00,54.8,53.1,29.89,NNE,28,2.0,4.0,94,0.00,,,0.30,Wunderground v.1.15,2013-09-05 03:49:00,
2013-09-04 23:55:00,54.9,52.9,29.89,NNE,16,1.0,3.0,93,0.00,,,0.30,Wunderground v.1.15,2013-09-05 03:55:00,